UAL2670 KDFW-KIAH

Flight info

Callsign UAL2670
Flight time 0h 42m
Altitude 29000
Route DARTZ9 TORNN GUSHR3
Aircraft B38M/M-SDE1FGHILORVWXY/HB1

Departure

Time 2026-04-30 21:27
Airport Dallas Fort Worth International Airport (KDFW)

Arrival

Time 2026-04-30 22:09
Airport George Bush Intercontinental Airport (KIAH)
Time Latitude Longitude Altitude Speed Heading
2026-04-30 21:09 32.89894 -97.04565 638 ft 0 kts 90°
2026-04-30 21:16 32.89894 -97.04566 618 ft 0 kts 90°
2026-04-30 21:23 32.89893 -97.04563 618 ft 0 kts 109°
2026-04-30 21:23 32.89849 -97.04589 622 ft 11 kts 231°
2026-04-30 21:24 32.89783 -97.04687 622 ft 19 kts 231°
2026-04-30 21:24 32.89657 -97.04760 622 ft 22 kts 185°
2026-04-30 21:24 32.89489 -97.04752 625 ft 26 kts 177°
2026-04-30 21:24 32.89358 -97.04741 626 ft 10 kts 161°
2026-04-30 21:25 32.89149 -97.04747 624 ft 18 kts 192°
2026-04-30 21:25 32.89037 -97.04869 623 ft 29 kts 266°
2026-04-30 21:25 32.89111 -97.05063 625 ft 29 kts 349°
2026-04-30 21:26 32.89853 -97.05079 625 ft 116 kts 359°
2026-04-30 21:26 32.90930 -97.05048 719 ft 186 kts
2026-04-30 21:27 32.93839 -97.04972 2500 ft 233 kts
2026-04-30 21:27 32.95540 -97.04943 3252 ft 255 kts 357°
2026-04-30 21:27 32.97338 -97.05294 4040 ft 264 kts 358°
2026-04-30 21:28 33.00711 -97.04198 6303 ft 263 kts 42°
2026-04-30 21:28 33.01798 -97.02432 7296 ft 271 kts 63°
2026-04-30 21:28 33.02117 -96.97769 8860 ft 306 kts 101°
2026-04-30 21:29 33.01781 -96.95215 9809 ft 319 kts 98°
2026-04-30 21:29 33.00829 -96.86832 12120 ft 358 kts 111°
2026-04-30 21:30 32.98072 -96.81995 13979 ft 360 kts 135°
2026-04-30 21:31 32.91655 -96.79027 16213 ft 336 kts 189°
2026-04-30 21:31 32.86956 -96.79045 17811 ft 344 kts 191°
2026-04-30 21:32 32.82103 -96.79118 19233 ft 352 kts 191°
2026-04-30 21:32 32.79632 -96.79162 19915 ft 356 kts 191°
2026-04-30 21:32 32.77142 -96.79207 20595 ft 359 kts 191°
2026-04-30 21:32 32.74629 -96.79285 21231 ft 362 kts 192°
2026-04-30 21:33 32.72134 -96.79391 21865 ft 365 kts 191°
2026-04-30 21:33 32.66998 -96.79596 23137 ft 372 kts 191°
2026-04-30 21:33 32.64399 -96.79697 23749 ft 375 kts 191°
2026-04-30 21:34 32.61772 -96.79799 24209 ft 379 kts 191°
2026-04-30 21:34 32.56446 -96.80007 25207 ft 386 kts 191°
2026-04-30 21:34 32.53751 -96.80112 25690 ft 389 kts 192°
2026-04-30 21:35 32.51074 -96.80217 26177 ft 391 kts 192°
2026-04-30 21:35 32.48349 -96.80322 26772 ft 393 kts 192°
2026-04-30 21:35 32.45613 -96.80428 26998 ft 392 kts 192°
2026-04-30 21:35 32.42889 -96.80533 27010 ft 390 kts 192°
2026-04-30 21:36 32.40177 -96.80640 26999 ft 390 kts 192°
2026-04-30 21:36 32.37465 -96.80746 27006 ft 390 kts 192°
2026-04-30 21:37 32.29332 -96.81062 26968 ft 390 kts 192°
2026-04-30 21:37 32.26619 -96.81165 26968 ft 390 kts 192°
2026-04-30 21:37 32.23908 -96.81265 26975 ft 390 kts 192°
2026-04-30 21:37 32.21188 -96.81292 26975 ft 398 kts 184°
2026-04-30 21:38 32.18449 -96.80320 26962 ft 426 kts 162°
2026-04-30 21:38 32.15896 -96.78519 26939 ft 436 kts 157°
2026-04-30 21:38 32.13234 -96.76933 27038 ft 419 kts 172°
2026-04-30 21:38 32.10474 -96.75950 27532 ft 415 kts 173°
2026-04-30 21:39 32.07713 -96.74884 28003 ft 419 kts 172°
2026-04-30 21:39 32.04944 -96.73763 28498 ft 421 kts 171°
2026-04-30 21:39 32.02174 -96.72618 28901 ft 424 kts 171°
2026-04-30 21:39 31.99389 -96.71448 28986 ft 424 kts 171°
2026-04-30 21:40 31.93790 -96.69079 28894 ft 432 kts 171°
2026-04-30 21:40 31.88064 -96.66652 28908 ft 439 kts 170°
2026-04-30 21:41 31.82314 -96.64217 28994 ft 440 kts 170°
2026-04-30 21:41 31.76557 -96.61783 28956 ft 439 kts 170°
2026-04-30 21:42 31.70831 -96.59366 28957 ft 439 kts 170°
2026-04-30 21:42 31.65078 -96.56941 28957 ft 439 kts 170°
2026-04-30 21:43 31.59315 -96.54516 28944 ft 440 kts 169°
2026-04-30 21:43 31.53535 -96.52085 28949 ft 441 kts 169°
2026-04-30 21:44 31.50704 -96.50599 28943 ft 453 kts 159°
2026-04-30 21:44 31.47984 -96.48704 28935 ft 454 kts 159°
2026-04-30 21:44 31.42373 -96.45449 28970 ft 450 kts 162°
2026-04-30 21:45 31.36797 -96.42111 28945 ft 451 kts 161°
2026-04-30 21:45 31.31546 -96.38907 28945 ft 448 kts 160°
2026-04-30 21:46 31.25909 -96.35471 28946 ft 461 kts 160°
2026-04-30 21:46 31.20117 -96.31940 28939 ft 474 kts 160°
2026-04-30 21:47 31.14264 -96.28375 28942 ft 474 kts 160°
2026-04-30 21:47 31.11345 -96.26599 28745 ft 471 kts 160°
2026-04-30 21:47 31.08426 -96.24827 27681 ft 472 kts 159°
2026-04-30 21:48 31.05532 -96.23070 26741 ft 466 kts 159°
2026-04-30 21:48 31.02673 -96.21323 25833 ft 460 kts 159°
2026-04-30 21:48 30.99865 -96.19580 24976 ft 454 kts 157°
2026-04-30 21:48 30.97120 -96.17810 24171 ft 447 kts 157°
2026-04-30 21:49 30.94444 -96.16090 23378 ft 441 kts 157°
2026-04-30 21:49 30.91791 -96.14389 22485 ft 434 kts 157°
2026-04-30 21:49 30.89163 -96.12707 21621 ft 428 kts 157°
2026-04-30 21:49 30.86595 -96.11063 20807 ft 422 kts 157°
2026-04-30 21:50 30.84033 -96.09417 20014 ft 416 kts 157°
2026-04-30 21:50 30.81509 -96.07794 19219 ft 411 kts 157°
2026-04-30 21:50 30.79021 -96.06195 18473 ft 406 kts 157°
2026-04-30 21:50 30.76564 -96.04616 17678 ft 401 kts 157°
2026-04-30 21:51 30.74136 -96.03059 16866 ft 396 kts 157°
2026-04-30 21:51 30.71744 -96.01525 16089 ft 389 kts 157°
2026-04-30 21:51 30.69395 -96.00019 15343 ft 382 kts 158°
2026-04-30 21:51 30.67107 -95.98563 14636 ft 375 kts 157°
2026-04-30 21:52 30.64843 -95.97119 13982 ft 367 kts 157°
2026-04-30 21:52 30.62641 -95.95711 13476 ft 353 kts 157°
2026-04-30 21:52 30.60536 -95.94364 13072 ft 338 kts 157°
2026-04-30 21:52 30.58516 -95.93074 12639 ft 324 kts 157°
2026-04-30 21:53 30.56598 -95.91847 12491 ft 305 kts 157°
2026-04-30 21:53 30.54801 -95.90697 12353 ft 286 kts 157°
2026-04-30 21:53 30.53079 -95.89600 12231 ft 284 kts 157°
2026-04-30 21:53 30.51305 -95.88472 12086 ft 295 kts 157°
2026-04-30 21:54 30.49468 -95.87376 11829 ft 297 kts 165°
2026-04-30 21:54 30.48148 -95.87028 11448 ft 293 kts 179°
2026-04-30 21:54 30.46122 -95.86807 11043 ft 292 kts 178°
2026-04-30 21:54 30.44118 -95.86571 10614 ft 288 kts 177°
2026-04-30 21:55 30.42138 -95.86343 10205 ft 284 kts 177°
2026-04-30 21:55 30.40181 -95.86122 9801 ft 280 kts 176°
2026-04-30 21:55 30.38246 -95.85903 9350 ft 278 kts 176°
2026-04-30 21:55 30.36336 -95.85688 8906 ft 274 kts 175°
2026-04-30 21:56 30.34458 -95.85476 8484 ft 267 kts 175°
2026-04-30 21:56 30.32622 -95.85269 8100 ft 262 kts 175°
2026-04-30 21:56 30.30823 -95.85067 7722 ft 256 kts 175°
2026-04-30 21:56 30.29107 -95.84872 7413 ft 247 kts 175°
2026-04-30 21:57 30.26858 -95.84620 6902 ft 240 kts 174°
2026-04-30 21:57 30.25765 -95.84497 6646 ft 237 kts 174°
2026-04-30 21:57 30.24134 -95.84315 6290 ft 233 kts 173°
2026-04-30 21:57 30.22523 -95.84133 5939 ft 232 kts 173°
2026-04-30 21:58 30.20922 -95.83946 5656 ft 230 kts 173°
2026-04-30 21:58 30.19334 -95.83762 5423 ft 229 kts 173°
2026-04-30 21:58 30.17750 -95.83578 5190 ft 228 kts 173°
2026-04-30 21:58 30.16188 -95.83398 4988 ft 221 kts 173°
2026-04-30 21:59 30.14665 -95.83221 4766 ft 219 kts 173°
2026-04-30 21:59 30.13155 -95.83046 4528 ft 217 kts 173°
2026-04-30 21:59 30.11660 -95.82874 4294 ft 215 kts 174°
2026-04-30 22:00 30.08693 -95.82532 3830 ft 216 kts 173°
2026-04-30 22:00 30.05713 -95.82194 3099 ft 215 kts 173°
2026-04-30 22:00 30.04336 -95.81676 3016 ft 209 kts 146°
2026-04-30 22:01 30.03316 -95.80475 2977 ft 211 kts 130°
2026-04-30 22:01 30.02413 -95.79137 2965 ft 211 kts 129°
2026-04-30 22:01 30.01579 -95.77763 2978 ft 213 kts 118°
2026-04-30 22:01 30.01181 -95.76115 2960 ft 216 kts 101°
2026-04-30 22:02 30.00998 -95.74380 2953 ft 219 kts 97°
2026-04-30 22:02 30.00878 -95.72617 2962 ft 221 kts 95°
2026-04-30 22:02 30.00802 -95.70846 2935 ft 221 kts 94°
2026-04-30 22:02 30.00755 -95.69081 2937 ft 219 kts 94°
2026-04-30 22:03 30.00726 -95.67333 2944 ft 221 kts 92°
2026-04-30 22:03 30.00709 -95.65560 2951 ft 221 kts 91°
2026-04-30 22:03 30.00701 -95.63784 2938 ft 221 kts 90°
2026-04-30 22:03 30.00698 -95.62016 2998 ft 220 kts 91°
2026-04-30 22:04 30.00698 -95.60253 2973 ft 220 kts 92°
2026-04-30 22:04 30.00698 -95.58558 2981 ft 195 kts 90°
2026-04-30 22:04 30.00696 -95.55619 2945 ft 180 kts 92°
2026-04-30 22:05 30.00697 -95.54185 3005 ft 179 kts 92°
2026-04-30 22:05 30.00697 -95.52747 2824 ft 178 kts 91°
2026-04-30 22:05 30.00695 -95.51328 2625 ft 177 kts 90°
2026-04-30 22:05 30.00696 -95.49914 2430 ft 176 kts 89°
2026-04-30 22:06 30.00700 -95.48512 2229 ft 174 kts 88°
2026-04-30 22:06 30.00702 -95.45849 1805 ft 157 kts 87°
2026-04-30 22:06 30.00704 -95.44605 1582 ft 154 kts 86°
2026-04-30 22:07 30.00706 -95.43359 1373 ft 155 kts 86°
2026-04-30 22:07 30.00707 -95.42134 1149 ft 151 kts 86°
2026-04-30 22:07 30.00708 -95.40928 969 ft 154 kts 83°
2026-04-30 22:07 30.00708 -95.39696 775 ft 153 kts 83°
2026-04-30 22:08 30.00710 -95.38465 618 ft 154 kts 86°
2026-04-30 22:08 30.00724 -95.37211 387 ft 154 kts 83°
2026-04-30 22:08 30.00716 -95.36023 163 ft 142 kts 86°
2026-04-30 22:08 30.00719 -95.34989 109 ft 102 kts 89°
2026-04-30 22:09 30.00717 -95.34449 109 ft 41 kts 90°
2026-04-30 22:09 30.00717 -95.34297 108 ft 0 kts 89°
2026-04-30 22:09 30.00718 -95.34235 109 ft 17 kts 90°
2026-04-30 22:09 30.00692 -95.34039 110 ft 33 kts 108°
2026-04-30 22:10 30.00586 -95.33801 109 ft 35 kts 120°
2026-04-30 22:10 30.00555 -95.33553 109 ft 21 kts 87°
2026-04-30 22:10 30.00557 -95.33365 108 ft 25 kts 92°
2026-04-30 22:10 30.00555 -95.33326 109 ft 4 kts 92°